[[{"header":{"parameterUnit":"m.s-1","parameterCategory":2,"la1":30.2991,"la2":30.254,"lo1":-89.0895,"lo2":-89.0444,"dy":0.0017,"dx":0.0017,"nx":28,"ny":28,"refTime":"2023-08-28T09:00:00:Z","depth":"0","parameterNumber":2,"parameterNumberName":"U-component_of_CURRENTS"},"data":[0,0,0,0,0,0,0,0,0,0,0,0,0,0,0,0,0,0,0,0,0,0,0,0,0,0,0,0,0,0,0,0,0,0,0,0,0,0,0,0,0,0,0,0,0,0,0,0,0,0,0,0,0,0,0,0,0,0,-0.2676,-0.268,0,-0.2924,-0.2925,-0.2927,-0.3033,-0.3034,-0.3036,-0.3037,-0.3138,-0.3139,-0.3141,0,0,0,0,0,0,0,0,0,0,0,0,0,-0.2356,-0.2359,-0.2676,-0.2681,-0.2685,-0.2924,-0.2925,-0.2927,-0.3033,-0.3034,-0.3036,-0.3037,-0.3137,-0.3139,-0.3141,0,0,0,0,0,0,0,0,0,0,0,0,0,-0.2521,-0.236,-0.2675,-0.278,-0.2794,-0.2923,-0.2925,-0.2928,-0.3033,-0.3035,-0.3036,-0.3038,-0.3137,-0.3139,-0.3141,-0.3118,0,0,-0.3148,-0.3149,0,0,0,0,0,0,0,0,-0.2511,-0.253,-0.276,-0.2774,-0.2789,-0.2966,-0.2851,-0.299,-0.3032,-0.2923,-0.3037,-0.3039,-0.3077,-0.3084,-0.3103,-0.3123,-0.3127,-0.3148,-0.315,-0.3151,-0.3151,0,0,0,0,0,0,0,-0.2499,-0.2521,-0.2756,-0.2765,-0.2783,-0.2838,-0.286,-0.2877,-0.2969,-0.2932,-0.2945,-0.3001,-0.3081,-0.3101,-0.3106,-0.3129,-0.3148,-0.315,-0.3152,-0.3153,-0.3088,-0.3085,0,0,0,0,0,0,-0.2501,-0.251,-0.2748,-0.2765,-0.2672,-0.2843,-0.2868,-0.2892,-0.2973,-0.2994,-0.2999,-0.3006,-0.3096,-0.3103,-0.311,-0.3035,-0.3151,-0.3153,-0.3154,-0.3091,-0.3088,-0.3084,0,0,0,0,0,0,-0.2492,-0.2518,-0.2739,-0.2659,-0.2694,-0.2848,-0.2874,-0.2896,-0.2929,-0.3029,-0.3043,-0.3013,-0.3098,-0.3107,-0.3118,-0.3042,-0.3154,-0.3156,-0.3095,-0.309,-0.3086,-0.2917,0,0,0,0,0,0,-0.2481,-0.2512,-0.2509,-0.2658,-0.2699,-0.2786,-0.2875,-0.2901,-0.2969,-0.2979,-0.3044,-0.3056,-0.31,-0.3114,-0.312,-0.3047,-0.3158,-0.3099,-0.3093,-0.3087,-0.2927,-0.2908,-0.2891,0,0,0,0,0,-0.2468,-0.2465,-0.2506,-0.2536,-0.2694,-0.2786,-0.2807,-0.2914,-0.2967,-0.2952,-0.3011,-0.3054,-0.3081,-0.3114,-0.3122,-0.3047,-0.3102,-0.3095,-0.3088,-0.2935,-0.2911,-0.2892,0,0,0,0,0,0,-0.2344,-0.2482,-0.2529,-0.2573,-0.266,-0.2811,-0.2823,-0.2905,-0.2942,-0.2944,-0.3033,-0.3046,-0.3023,-0.3059,-0.3094,-0.3009,-0.309,-0.3084,-0.2971,-0.2949,-0.2932,-0.2936,-0.316,0,0,0,0,0,-0.2312,-0.2332,-0.2477,-0.2509,-0.2541,-0.2675,-0.2726,-0.2795,-0.2874,-0.2895,-0.2954,-0.299,-0.2995,-0.2997,-0.3014,-0.2975,-0.3006,-0.2925,-0.2907,-0.2892,-0.2898,-0.2883,-0.2864,-0.3061,-0.3062,-0.3062,0,0,-0.2289,-0.2361,-0.2381,-0.2481,-0.2551,-0.2585,-0.2702,-0.2761,-0.2779,-0.2894,-0.2901,-0.2937,-0.2975,-0.2932,-0.2921,-0.2955,-0.2841,-0.2883,-0.2869,-0.2885,-0.2874,-0.2855,-0.2838,-0.3057,-0.3058,-0.3058,0,0,-0.2246,-0.229,-0.2291,-0.2342,-0.2444,-0.251,-0.2524,-0.2649,-0.2676,-0.2695,-0.2772,-0.2763,-0.2796,-0.2795,-0.2801,-0.2691,-0.2756,-0.2692,-0.2595,-0.2577,-0.2562,-0.2548,-0.2522,-0.2508,-0.2671,-0.2671,-0.2671,0,-0.2209,-0.2241,-0.2305,-0.2317,-0.2368,-0.2469,-0.2487,-0.2511,-0.2624,-0.2644,-0.2666,-0.2705,-0.2717,-0.2681,-0.2632,-0.2646,-0.2667,-0.2673,-0.2555,-0.2542,-0.2532,-0.2509,-0.2495,-0.2662,-0.2663,-0.2664,-0.2665,0,-0.2179,-0.2199,-0.2197,-0.2236,-0.227,-0.2299,-0.2365,-0.2377,-0.2422,-0.2476,-0.2464,-0.248,-0.2518,-0.2482,-0.252,-0.2444,-0.2491,-0.2542,-0.2611,-0.2502,-0.2484,-0.2473,-0.2649,-0.2652,-0.2655,-0.2657,0,0,-0.2128,-0.2171,-0.2171,-0.2187,-0.2237,-0.2275,-0.2252,-0.2295,-0.2313,-0.232,-0.234,-0.2283,-0.233,-0.2339,-0.2369,-0.2324,-0.2222,-0.2392,-0.2396,-0.2369,-0.219,-0.2116,-0.2098,-0.2271,-0.2269,-0.2267,-0.2193,0,-0.2096,-0.2102,-0.213,-0.2134,-0.215,-0.2202,-0.2192,-0.2222,-0.2245,-0.2266,-0.2243,-0.226,-0.2262,-0.228,-0.2226,-0.2269,-0.2195,-0.2238,-0.2299,-0.23,-0.2251,-0.2082,-0.1993,-0.1911,-0.2183,-0.2182,-0.218,0,-0.2062,-0.2079,-0.2079,-0.2117,-0.2128,-0.213,-0.216,-0.2167,-0.2182,-0.2202,-0.2194,-0.2228,-0.2174,-0.2188,-0.2136,-0.2181,-0.2156,-0.2151,-0.215,-0.2142,-0.2206,-0.2073,-0.1883,-0.1876,-0.2165,-0.2166,-0.2167,0,-0.2019,-0.2044,-0.2046,-0.2059,-0.2102,-0.2105,-0.2125,-0.215,-0.2161,-0.2174,-0.2189,-0.2165,-0.216,-0.2127,-0.2103,-0.2136,-0.2046,-0.2099,-0.1988,-0.1984,-0.1948,-0.1944,-0.1764,-0.201,-0.201,-0.2011,-0.2011,0,-0.1986,-0.1987,-0.2028,-0.2034,-0.2037,-0.208,-0.2084,-0.2105,-0.2135,-0.214,-0.216,-0.2153,-0.2148,-0.2112,-0.2086,-0.199,-0.2026,-0.1931,-0.1941,-0.188,-0.1871,-0.1903,-0.1954,-0.2008,-0.2008,-0.2009,-0.2009,0,-0.1928,-0.196,-0.1964,-0.2006,-0.2015,-0.2015,-0.2056,-0.207,-0.2105,-0.2112,-0.2117,-0.2137,-0.2086,-0.2052,-0.2,-0.1955,-0.1848,-0.1838,-0.1755,-0.1753,-0.1641,-0.1688,-0.1572,-0.1527,-0.17,-0.1697,-0.1695,0,-0.1893,-0.1891,-0.1925,-0.1932,-0.1946,-0.1963,-0.1979,-0.2034,-0.2054,-0.2093,-0.2091,-0.206,-0.2008,-0.1894,-0.1809,-0.1705,-0.1727,-0.1568,-0.158,-0.1568,-0.1629,-0.1679,-0.1655,-0.146,-0.1456,-0.1453,-0.145,0,-0.1819,-0.1832,-0.1842,-0.1855,-0.1871,-0.1884,-0.1915,-0.1926,-0.1991,-0.1994,-0.1978,-0.194,-0.1842,-0.1695,-0.1571,-0.1506,-0.1536,-0.1497,-0.1507,-0.1415,-0.1437,-0.1423,-0.1588,-0.1421,-0.1424,-0.1426,-0.1428,-0.1429,-0.1749,-0.1738,-0.1753,-0.1751,-0.1775,-0.1775,-0.1743,-0.1792,-0.1782,-0.173,-0.181,-0.1648,-0.1611,-0.1416,-0.1358,-0.1226,-0.1308,-0.1186,-0.1239,-0.1287,-0.1234,-0.1314,-0.1153,-0.1154,-0.1155,-0.1156,-0.1157,0,-0.1645,-0.1643,-0.1649,-0.1638,-0.1615,-0.1663,-0.167,-0.1607,-0.1543,-0.1466,-0.1412,-0.1238,-0.1181,-0.1128,-0.1067,-0.1002,-0.1,-0.0982,-0.1041,-0.1025,-0.1096,-0.1074,-0.086,-0.086,-0.086,-0.086,-0.086,-0.086,-0.1589,-0.1549,-0.1549,-0.1459,-0.1457,-0.1381,-0.1351,-0.1262,-0.1155,-0.0904,-0.0702,-0.0623,-0.0743,-0.0992,-0.0988,-0.0934,-0.0939,-0.0893,-0.0942,-0.102,-0.1045,-0.1068,-0.1055,-0.084,-0.084,-0.0815,-0.0815,-0.0815]},{"header":{"parameterUnit":"m.s-1","parameterCategory":2,"la1":30.2991,"la2":30.254,"lo1":-89.0895,"lo2":-89.0444,"dy":0.0017,"dx":0.0017,"nx":28,"ny":28,"refTime":"2023-08-28T09:00:00:Z","depth":"0","parameterNumber":3,"parameterNumberName":"V-component_of_CURRENTS"},"data":[0,0,0,0,0,0,0,0,0,0,0,0,0,0,0,0,0,0,0,0,0,0,0,0,0,0,0,0,0,0,0,0,0,0,0,0,0,0,0,0,0,0,0,0,0,0,0,0,0,0,0,0,0,0,0,0,0,0,-0.035,-0.0348,0,-0.0179,-0.0177,-0.0175,-0.0027,-0.0026,-0.0024,-0.0022,0.0229,0.0234,0.0239,0,0,0,0,0,0,0,0,0,0,0,0,0,-0.0442,-0.0442,-0.035,-0.0348,-0.0346,-0.018,-0.0177,-0.0175,-0.0028,-0.0026,-0.0024,-0.0022,0.0227,0.0233,0.0239,0,0,0,0,0,0,0,0,0,0,0,0,0,-0.035,-0.0441,-0.035,-0.0252,-0.0242,-0.018,-0.0177,-0.0174,-0.0028,-0.0026,-0.0023,-0.0021,0.0225,0.0233,0.024,0.0238,0,0,0.0264,0.0267,0,0,0,0,0,0,0,0,-0.0355,-0.0347,-0.0269,-0.0259,-0.0247,-0.0122,-0.0117,-0.0032,-0.0029,-0.0109,-0.0022,-0.0019,0.0117,0.0134,0.0159,0.0249,0.026,0.0264,0.0269,0.0272,0.0275,0,0,0,0,0,0,0,-0.0362,-0.0353,-0.0282,-0.0267,-0.0254,-0.018,-0.0166,-0.01,-0.0011,-0.0102,-0.0091,-0.0073,0.0124,0.0151,0.0166,0.0264,0.0264,0.0271,0.0276,0.0279,0.0404,0.0403,0,0,0,0,0,0,-0.0392,-0.036,-0.0288,-0.0277,-0.0296,-0.0181,-0.0165,-0.0165,-0.0013,0.0012,-0.0075,-0.0067,0.0137,0.0157,0.0176,0.0203,0.0272,0.028,0.0284,0.0406,0.0404,0.0403,0,0,0,0,0,0,-0.0395,-0.0388,-0.0294,-0.0313,-0.0296,-0.0183,-0.0184,-0.0163,-0.0128,0.0007,0.0034,-0.0062,0.014,0.0165,0.0221,0.0213,0.0283,0.029,0.0407,0.0405,0.0403,0.0244,0,0,0,0,0,0,-0.0399,-0.0391,-0.0401,-0.0316,-0.0296,-0.0268,-0.0186,-0.0161,-0.0121,-0.0108,0.0027,0.0053,0.0144,0.0209,0.0229,0.0225,0.0296,0.0409,0.0406,0.0404,0.025,0.0236,0.0224,0,0,0,0,0,-0.0403,-0.042,-0.0404,-0.0394,-0.0315,-0.0269,-0.0253,-0.0162,-0.0124,-0.0121,-0.0037,0.0049,0.0209,0.0213,0.0237,0.0236,0.041,0.0407,0.0404,0.0256,0.0239,0.0225,0,0,0,0,0,0,-0.0454,-0.0404,-0.0384,-0.0383,-0.034,-0.0244,-0.0228,-0.018,-0.0114,-0.0099,0.0025,0.0055,0.0107,0.018,0.0182,0.0264,0.0326,0.0328,0.0206,0.0191,0.0178,0.0179,0.0302,0,0,0,0,0,-0.0481,-0.0484,-0.0425,-0.0425,-0.0411,-0.0331,-0.0301,-0.025,-0.0179,-0.0146,-0.0055,0.0037,0.011,0.0155,0.0232,0.0265,0.0331,0.0282,0.0269,0.0257,0.0274,0.0329,0.0322,0.0393,0.0393,0.0393,0,0,-0.0496,-0.0472,-0.047,-0.0438,-0.0394,-0.0375,-0.0306,-0.0275,-0.0251,-0.0132,-0.0077,-0.0007,0.0107,0.0152,0.0183,0.0216,0.0265,0.0253,0.0243,0.0267,0.0325,0.0318,0.0312,0.0391,0.0392,0.0392,0,0,-0.0527,-0.0519,-0.0529,-0.0505,-0.0461,-0.0417,-0.0419,-0.0345,-0.0304,-0.0266,-0.0169,-0.0119,-0.0004,0.0071,0.0125,0.0081,0.0191,0.0111,0.0053,0.0104,0.0099,0.0096,0.0141,0.0143,0.0107,0.0106,0.0106,0,-0.0548,-0.0555,-0.0524,-0.0524,-0.0503,-0.0445,-0.0443,-0.0402,-0.0318,-0.029,-0.0265,-0.0116,-0.0039,0.0033,0.0019,0.0053,0.0103,0.01,0.0086,0.0085,0.0084,0.0132,0.0136,0.0098,0.0099,0.01,0.0101,0,-0.0579,-0.0584,-0.0589,-0.0574,-0.0554,-0.0549,-0.0495,-0.0475,-0.0433,-0.0379,-0.0318,-0.0233,-0.0134,-0.0118,-0.0058,-0.0023,0.002,0.0057,0.0122,0.0067,0.0121,0.0128,0.0087,0.009,0.0092,0.0094,0,0,-0.0618,-0.0614,-0.0614,-0.0619,-0.0583,-0.057,-0.0552,-0.051,-0.0487,-0.0431,-0.0388,-0.0306,-0.0257,-0.0194,-0.0124,-0.0088,-0.0079,-0.0026,-0.002,0.0011,0.0035,0.0077,0.009,-0.0043,-0.0042,-0.0042,0.0065,0,-0.0648,-0.0675,-0.0654,-0.0665,-0.0674,-0.0626,-0.0609,-0.0566,-0.0519,-0.0469,-0.0395,-0.0331,-0.0284,-0.025,-0.0209,-0.0093,-0.0062,-0.011,0.0094,0.01,0.0138,0.0099,0.0141,0.0241,0.0073,0.0074,0.0075,0,-0.0678,-0.0695,-0.0723,-0.0719,-0.0716,-0.071,-0.0676,-0.0653,-0.0575,-0.0536,-0.0469,-0.0394,-0.0318,-0.0286,-0.0134,-0.0164,-0.0077,-0.0006,0.0001,0.0111,0.0156,0.0277,0.0262,0.0391,0.0087,0.0086,0.0085,0,-0.0725,-0.0736,-0.0767,-0.0765,-0.0752,-0.075,-0.0734,-0.0674,-0.065,-0.0575,-0.0545,-0.0437,-0.0371,-0.0262,-0.0113,-0.012,0.0055,0.0067,0.0183,0.0187,0.0303,0.0315,0.0438,0.0161,0.0161,0.016,0.016,0,-0.0767,-0.0786,-0.0795,-0.0812,-0.0837,-0.0804,-0.0805,-0.077,-0.0708,-0.067,-0.0584,-0.0521,-0.0361,-0.0237,-0.0119,0.0063,0.0054,0.0179,0.022,0.0244,0.025,0.0436,0.0489,0.0164,0.0164,0.0163,0.0162,0,-0.0811,-0.0818,-0.0853,-0.086,-0.0863,-0.0881,-0.0861,-0.0853,-0.0793,-0.0738,-0.0717,-0.0568,-0.0401,-0.0241,-0.0038,0.0067,0.0314,0.0286,0.03,0.034,0.0551,0.0593,0.0778,0.0866,0.0424,0.0425,0.0427,0,-0.0837,-0.0863,-0.0897,-0.0925,-0.0931,-0.0949,-0.0954,-0.0903,-0.0879,-0.0756,-0.0725,-0.0558,-0.0405,-0.0103,0.0108,0.0324,0.0412,0.0473,0.0461,0.0576,0.0653,0.0668,0.073,0.0543,0.0546,0.0548,0.0549,0,-0.0883,-0.0895,-0.0927,-0.0986,-0.1011,-0.1032,-0.1027,-0.1013,-0.0929,-0.0849,-0.0694,-0.0562,-0.0263,0.003,0.0295,0.0415,0.0577,0.0518,0.0646,0.0767,0.0786,0.0887,0.0452,0.0566,0.0564,0.0563,0.0562,0.0561,-0.0907,-0.0946,-0.099,-0.1039,-0.1072,-0.1088,-0.1069,-0.1011,-0.0934,-0.0714,-0.0626,-0.0296,-0.0018,0.0379,0.0515,0.0794,0.0743,0.0868,0.0912,0.0917,0.1,0.0592,0.0742,0.0742,0.0741,0.0741,0.074,0,-0.0932,-0.0977,-0.1036,-0.1087,-0.1119,-0.1124,-0.1089,-0.0994,-0.0843,-0.0582,-0.0349,0.0152,0.0452,0.0724,0.1037,0.1185,0.1213,0.1243,0.1283,0.1331,0.0991,0.0994,0.1195,0.1194,0.1194,0.1194,0.1194,0.1194,-0.0949,-0.101,-0.1044,-0.1103,-0.1133,-0.1106,-0.1062,-0.0859,-0.0629,-0.0148,0.0275,0.0565,0.0864,0.1226,0.1509,0.1538,0.1682,0.1645,0.1726,0.1496,0.1464,0.1433,0.1449,0.1742,0.1743,0.2059,0.2062,0.2065]}],[{"header":{"parameterUnit":"m.s-1","parameterCategory":2,"la1":30.2991,"la2":30.254,"lo1":-89.0895,"lo2":-89.0444,"dy":0.0017,"dx":0.0017,"nx":28,"ny":28,"refTime":"2023-08-28T09:00:00:Z","depth":"2","parameterNumber":2,"parameterNumberName":"U-component_of_CURRENTS"},"data":[0,0,0,0,0,0,0,0,0,0,0,0,0,0,0,0,0,0,0,0,0,0,0,0,0,0,0,0,0,0,0,0,0,0,0,0,0,0,0,0,0,0,0,0,0,0,0,0,0,0,0,0,0,0,0,0,0,0,-0.2206,-0.2206,0,-0.2203,-0.2203,-0.2203,-0.2188,-0.2187,-0.2187,-0.2187,-0.2325,-0.2329,-0.2332,0,0,0,0,0,0,0,0,0,0,0,0,0,-0.214,-0.2142,-0.2206,-0.2206,-0.2206,-0.2203,-0.2203,-0.2203,-0.2188,-0.2187,-0.2187,-0.2187,-0.2323,-0.2328,-0.2333,0,0,0,0,0,0,0,0,0,0,0,0,0,-0.2156,-0.2142,-0.2206,-0.2199,-0.2198,-0.2203,-0.2203,-0.2203,-0.2188,-0.2187,-0.2187,-0.2187,-0.2322,-0.2328,-0.2334,-0.2379,0,0,-0.2352,-0.2354,0,0,0,0,0,0,0,0,-0.2155,-0.2158,-0.22,-0.2199,-0.2199,-0.2196,-0.223,-0.2269,-0.2188,-0.2191,-0.2187,-0.2186,-0.2296,-0.2304,-0.2301,-0.2385,-0.2391,-0.2352,-0.2356,-0.2358,-0.236,0,0,0,0,0,0,0,-0.2154,-0.2158,-0.2204,-0.22,-0.2199,-0.2176,-0.2178,-0.2237,-0.2248,-0.2191,-0.219,-0.2191,-0.2296,-0.2295,-0.2305,-0.2393,-0.2352,-0.2357,-0.2361,-0.2363,-0.2449,-0.2448,0,0,0,0,0,0,-0.216,-0.2157,-0.2204,-0.2204,-0.2176,-0.2178,-0.218,-0.2197,-0.2244,-0.225,-0.2191,-0.219,-0.2285,-0.2298,-0.231,-0.2327,-0.2358,-0.2364,-0.2367,-0.245,-0.2449,-0.2447,0,0,0,0,0,0,-0.2159,-0.2165,-0.2204,-0.218,-0.2183,-0.218,-0.2198,-0.2197,-0.2202,-0.2243,-0.2251,-0.2199,-0.2285,-0.2301,-0.2341,-0.2334,-0.2366,-0.2372,-0.2452,-0.245,-0.2448,-0.2387,0,0,0,0,0,0,-0.2157,-0.2165,-0.2171,-0.2181,-0.2185,-0.2209,-0.2199,-0.2197,-0.2204,-0.2202,-0.2253,-0.2264,-0.2286,-0.2332,-0.2347,-0.2342,-0.2376,-0.2453,-0.2451,-0.2449,-0.2391,-0.2383,-0.2377,0,0,0,0,0,-0.2155,-0.2161,-0.2172,-0.2177,-0.2198,-0.221,-0.221,-0.2204,-0.2205,-0.2207,-0.2224,-0.2263,-0.2327,-0.2336,-0.2354,-0.2351,-0.2454,-0.2452,-0.2449,-0.2394,-0.2385,-0.2377,0,0,0,0,0,0,-0.2127,-0.2161,-0.2173,-0.2188,-0.2202,-0.2208,-0.2202,-0.2212,-0.2226,-0.2227,-0.2264,-0.2277,-0.23,-0.2336,-0.2345,-0.2363,-0.2392,-0.2392,-0.2343,-0.2336,-0.2329,-0.2322,-0.2381,0,0,0,0,0,-0.213,-0.2145,-0.2174,-0.2182,-0.2192,-0.2204,-0.2206,-0.2212,-0.2227,-0.2231,-0.2262,-0.2287,-0.2302,-0.2327,-0.2351,-0.2386,-0.239,-0.2387,-0.238,-0.2374,-0.2377,-0.2363,-0.2355,-0.2438,-0.2438,-0.2438,0,0,-0.2118,-0.2138,-0.2145,-0.2177,-0.2184,-0.2192,-0.2203,-0.2212,-0.2212,-0.2251,-0.2258,-0.2275,-0.2303,-0.2313,-0.2329,-0.2347,-0.2348,-0.2371,-0.2366,-0.2372,-0.2359,-0.2351,-0.2344,-0.2436,-0.2436,-0.2437,0,0,-0.2093,-0.2126,-0.2129,-0.2147,-0.2169,-0.2181,-0.219,-0.221,-0.2211,-0.2232,-0.2234,-0.2238,-0.2294,-0.2284,-0.2294,-0.2272,-0.2308,-0.2287,-0.2262,-0.2247,-0.224,-0.2234,-0.2207,-0.22,-0.229,-0.2289,-0.2289,0,-0.2074,-0.2094,-0.2128,-0.2134,-0.2144,-0.218,-0.2184,-0.2191,-0.2216,-0.222,-0.2229,-0.2246,-0.2269,-0.226,-0.2235,-0.2257,-0.2257,-0.2292,-0.2238,-0.2233,-0.2228,-0.2202,-0.2194,-0.2286,-0.2287,-0.2287,-0.2287,0,-0.2054,-0.2072,-0.2074,-0.21,-0.2115,-0.2127,-0.2153,-0.2167,-0.2182,-0.2189,-0.2192,-0.2199,-0.2211,-0.2206,-0.2219,-0.2193,-0.2205,-0.2226,-0.226,-0.2216,-0.2191,-0.2184,-0.2282,-0.2283,-0.2284,-0.2284,0,0,-0.201,-0.2053,-0.2053,-0.2068,-0.2105,-0.2118,-0.2124,-0.2142,-0.2149,-0.2158,-0.2155,-0.2144,-0.2154,-0.2162,-0.2169,-0.2152,-0.21,-0.2177,-0.2178,-0.2152,-0.2063,-0.1983,-0.1968,-0.2121,-0.212,-0.212,-0.2051,0,-0.1984,-0.1995,-0.2023,-0.2033,-0.2048,-0.2087,-0.2093,-0.2113,-0.2132,-0.214,-0.2134,-0.2138,-0.2137,-0.2142,-0.2119,-0.2123,-0.2084,-0.2116,-0.2109,-0.2108,-0.2044,-0.1958,-0.1833,-0.1754,-0.2044,-0.2043,-0.2043,0,-0.1955,-0.1974,-0.1981,-0.2022,-0.2032,-0.2039,-0.2072,-0.2083,-0.2102,-0.2117,-0.2115,-0.2127,-0.2102,-0.2108,-0.2065,-0.2094,-0.2064,-0.2053,-0.205,-0.1997,-0.2015,-0.185,-0.1732,-0.2032,-0.2032,-0.2033,-0.2034,0,-0.1915,-0.1945,-0.1952,-0.1966,-0.2013,-0.202,-0.2042,-0.207,-0.2084,-0.2101,-0.2113,-0.21,-0.2095,-0.2067,-0.2037,-0.2059,-0.1985,-0.2016,-0.1903,-0.1898,-0.1799,-0.1785,-0.1954,-0.1954,-0.1954,-0.1954,-0.1955,0,-0.1885,-0.1891,-0.1936,-0.1944,-0.1953,-0.1997,-0.2007,-0.2031,-0.2063,-0.2071,-0.2095,-0.2088,-0.2087,-0.2054,-0.2026,-0.1932,-0.197,-0.1871,-0.1864,-0.177,-0.1756,-0.2018,-0.2026,-0.1952,-0.1952,-0.1953,-0.1953,0,-0.1832,-0.1865,-0.1876,-0.1922,-0.1933,-0.1938,-0.1983,-0.1998,-0.2036,-0.2046,-0.2052,-0.2073,-0.2024,-0.1996,-0.1946,-0.1901,-0.1835,-0.1786,-0.1665,-0.1644,-0.1762,-0.1768,-0.1657,-0.1653,-0.165,-0.1647,-0.1645,0,-0.1801,-0.1802,-0.1842,-0.1852,-0.1869,-0.189,-0.1909,-0.1965,-0.1986,-0.2025,-0.2023,-0.1996,-0.1943,-0.1833,-0.1751,-0.1651,-0.1724,-0.1483,-0.1487,-0.1721,-0.1727,-0.1738,-0.1747,-0.1329,-0.1324,-0.132,-0.1317,0,-0.1736,-0.1751,-0.1763,-0.1781,-0.18,-0.1817,-0.185,-0.1859,-0.1923,-0.1927,-0.1909,-0.1869,-0.1774,-0.1608,-0.149,-0.1425,-0.1496,-0.1402,-0.1663,-0.1426,-0.1407,-0.1414,-0.1436,-0.1284,-0.1287,-0.129,-0.1291,-0.1293,-0.1672,-0.1665,-0.1682,-0.1684,-0.1711,-0.1712,-0.1675,-0.1726,-0.1715,-0.1681,-0.1744,-0.1632,-0.158,-0.1322,-0.1222,-0.1144,-0.1252,-0.1199,-0.1213,-0.123,-0.1207,-0.1183,-0.1014,-0.1015,-0.1017,-0.1018,-0.1019,0,-0.1578,-0.1577,-0.1585,-0.1576,-0.1552,-0.1602,-0.1604,-0.1543,-0.1476,-0.149,-0.144,-0.1255,-0.1126,-0.1079,-0.0908,-0.0858,-0.0874,-0.0817,-0.0852,-0.0884,-0.0913,-0.0877,-0.0595,-0.0593,-0.0592,-0.0591,0,0,-0.1529,-0.1492,-0.149,-0.14,-0.1395,-0.1296,-0.1259,-0.1201,-0.1171,-0.1078,-0.1026,-0.1075,-0.1064,-0.0847,-0.0772,-0.0662,-0.0771,-0.062,-0.096,-0.1034,-0.1062,-0.1127,-0.1106,0,0,0,0,0]},{"header":{"parameterUnit":"m.s-1","parameterCategory":2,"la1":30.2991,"la2":30.254,"lo1":-89.0895,"lo2":-89.0444,"dy":0.0017,"dx":0.0017,"nx":28,"ny":28,"refTime":"2023-08-28T09:00:00:Z","depth":"2","parameterNumber":3,"parameterNumberName":"V-component_of_CURRENTS"},"data":[0,0,0,0,0,0,0,0,0,0,0,0,0,0,0,0,0,0,0,0,0,0,0,0,0,0,0,0,0,0,0,0,0,0,0,0,0,0,0,0,0,0,0,0,0,0,0,0,0,0,0,0,0,0,0,0,0,0,-0.0369,-0.0368,0,-0.0309,-0.0309,-0.0308,-0.0266,-0.0265,-0.0265,-0.0264,-0.0121,-0.0118,-0.0114,0,0,0,0,0,0,0,0,0,0,0,0,0,-0.0405,-0.0405,-0.0369,-0.0368,-0.0367,-0.0309,-0.0309,-0.0308,-0.0266,-0.0265,-0.0265,-0.0264,-0.0122,-0.0118,-0.0114,0,0,0,0,0,0,0,0,0,0,0,0,0,-0.0373,-0.0405,-0.0369,-0.0339,-0.0335,-0.0309,-0.0309,-0.0308,-0.0266,-0.0265,-0.0265,-0.0264,-0.0124,-0.0119,-0.0113,-0.0093,0,0,-0.0098,-0.0095,0,0,0,0,0,0,0,0,-0.0375,-0.0372,-0.0344,-0.0341,-0.0337,-0.0294,-0.0269,-0.0232,-0.0266,-0.0293,-0.0264,-0.0264,-0.0171,-0.0162,-0.0154,-0.0087,-0.008,-0.0097,-0.0094,-0.0092,-0.009,0,0,0,0,0,0,0,-0.0377,-0.0374,-0.0346,-0.0343,-0.0339,-0.0314,-0.0309,-0.0262,-0.0235,-0.029,-0.0287,-0.028,-0.0169,-0.0159,-0.015,-0.0078,-0.0097,-0.0093,-0.009,-0.0087,0.0016,0.0016,0,0,0,0,0,0,-0.0386,-0.0376,-0.0348,-0.0344,-0.0354,-0.0314,-0.0309,-0.0309,-0.0237,-0.0226,-0.028,-0.0278,-0.0168,-0.0156,-0.0145,-0.0109,-0.0092,-0.0087,-0.0084,0.0017,0.0016,0.0016,0,0,0,0,0,0,-0.0387,-0.0385,-0.035,-0.0358,-0.0351,-0.0315,-0.0315,-0.0308,-0.0296,-0.023,-0.0218,-0.0276,-0.0168,-0.0152,-0.0117,-0.0103,-0.0085,-0.008,0.0017,0.0016,0.0016,-0.0042,0,0,0,0,0,0,-0.0389,-0.0386,-0.0395,-0.0359,-0.0351,-0.0339,-0.0315,-0.0307,-0.0293,-0.0289,-0.0222,-0.0208,-0.0166,-0.0125,-0.0112,-0.0096,-0.0076,0.0017,0.0017,0.0016,-0.0039,-0.0044,-0.0048,0,0,0,0,0,-0.039,-0.0406,-0.0396,-0.0392,-0.0363,-0.0339,-0.0333,-0.0305,-0.0293,-0.0292,-0.0256,-0.021,-0.0119,-0.0122,-0.0106,-0.0088,0.0018,0.0017,0.0016,-0.0037,-0.0043,-0.0048,0,0,0,0,0,0,-0.0428,-0.0402,-0.039,-0.0397,-0.0371,-0.0332,-0.0332,-0.0309,-0.0282,-0.0279,-0.0218,-0.0202,-0.0164,-0.0125,-0.013,-0.0062,-0.0041,-0.0039,-0.0087,-0.0092,-0.0096,-0.01,-0.0072,0,0,0,0,0,-0.0441,-0.0445,-0.041,-0.0417,-0.0407,-0.037,-0.0359,-0.0338,-0.0306,-0.0293,-0.0246,-0.0199,-0.0155,-0.0126,-0.0083,-0.0048,-0.0009,-0.0026,-0.003,-0.0034,-0.0028,0.0025,0.0026,0.0013,0.0013,0.0013,0,0,-0.0456,-0.0444,-0.0445,-0.0425,-0.0405,-0.0394,-0.0363,-0.0349,-0.0335,-0.028,-0.0253,-0.0212,-0.0152,-0.0115,-0.0093,-0.008,-0.0012,-0.0035,-0.0039,-0.003,0.0024,0.0026,0.0027,0.0013,0.0013,0.0013,0,0,-0.0486,-0.0479,-0.0488,-0.047,-0.0444,-0.0419,-0.0417,-0.0378,-0.0357,-0.0329,-0.0286,-0.0244,-0.0179,-0.0132,-0.01,-0.0103,-0.0041,-0.0086,-0.0103,-0.0052,-0.005,-0.0048,-0.0008,-0.0002,-0.0084,-0.0084,-0.0085,0,-0.0505,-0.0511,-0.0487,-0.0487,-0.0476,-0.0433,-0.0433,-0.0406,-0.036,-0.0339,-0.0328,-0.0234,-0.0184,-0.0128,-0.0131,-0.0109,-0.0077,-0.0088,-0.0057,-0.0054,-0.0051,-0.001,-0.0003,-0.0087,-0.0087,-0.0087,-0.0086,0,-0.0534,-0.0537,-0.0542,-0.0528,-0.0513,-0.0508,-0.0465,-0.0446,-0.0417,-0.038,-0.0327,-0.0269,-0.0209,-0.0186,-0.0156,-0.0106,-0.009,-0.0073,-0.0045,-0.0053,-0.001,-0.0001,-0.0091,-0.009,-0.009,-0.0089,0,0,-0.057,-0.0565,-0.0564,-0.0566,-0.0534,-0.0525,-0.0504,-0.0466,-0.0447,-0.0396,-0.0362,-0.029,-0.0253,-0.0215,-0.0167,-0.012,-0.0075,-0.0091,-0.0087,-0.0053,0.0031,0.006,0.0073,-0.0053,-0.0052,-0.0051,0.0048,0,-0.0596,-0.0618,-0.0599,-0.0606,-0.0611,-0.0567,-0.055,-0.051,-0.0467,-0.0423,-0.0349,-0.0303,-0.0264,-0.0239,-0.0184,-0.0099,-0.0052,-0.0103,0.0036,0.004,0.0067,0.0084,0.007,0.0159,0.0057,0.0059,0.006,0,-0.0622,-0.0635,-0.0657,-0.0648,-0.0644,-0.0639,-0.0603,-0.0581,-0.0507,-0.0471,-0.0407,-0.0349,-0.0266,-0.0241,-0.0097,-0.0133,-0.0056,0.0007,0.0013,0.007,0.0087,0.0154,0.018,0.0076,0.0074,0.0073,0.0072,0,-0.0662,-0.0668,-0.0692,-0.0689,-0.0674,-0.0671,-0.0656,-0.0599,-0.0575,-0.0502,-0.0475,-0.037,-0.0313,-0.0208,-0.0075,-0.0086,0.0082,0.0085,0.0185,0.0187,0.022,0.0223,0.0186,0.0186,0.0186,0.0186,0.0185,0,-0.0696,-0.071,-0.0717,-0.073,-0.0749,-0.0718,-0.0716,-0.0683,-0.0625,-0.0589,-0.0506,-0.0448,-0.0302,-0.0187,-0.0078,0.0087,0.0084,0.0193,0.0222,0.0197,0.0197,0.0161,0.0157,0.0189,0.0189,0.0188,0.0187,0,-0.0732,-0.0738,-0.0765,-0.0769,-0.0772,-0.0787,-0.0768,-0.0759,-0.0702,-0.0652,-0.0632,-0.0494,-0.0342,-0.0194,-0.0006,0.009,0.0235,0.0292,0.0249,0.0271,0.0303,0.0294,0.0411,0.0413,0.0414,0.0416,0.0417,0,-0.0754,-0.0776,-0.0805,-0.083,-0.0836,-0.085,-0.0856,-0.0807,-0.0785,-0.0671,-0.0644,-0.0491,-0.0355,-0.0077,0.0112,0.0312,0.0297,0.0401,0.0385,0.0314,0.033,0.0318,0.0308,0.04,0.0401,0.0402,0.0403,0,-0.0793,-0.0805,-0.0831,-0.0888,-0.0912,-0.0929,-0.0926,-0.0913,-0.0836,-0.0767,-0.0631,-0.0513,-0.0241,-0.0001,0.0241,0.0347,0.0365,0.0425,0.0382,0.0341,0.0311,0.0324,0.0313,0.041,0.0409,0.0409,0.0408,0.0408,-0.0815,-0.0851,-0.0891,-0.0938,-0.097,-0.0989,-0.0983,-0.0949,-0.0888,-0.0753,-0.0633,-0.0433,-0.0208,0.0153,0.033,0.0472,0.0465,0.0495,0.049,0.0484,0.046,0.0435,0.0552,0.0552,0.0552,0.0552,0.0552,0,-0.0843,-0.0884,-0.0938,-0.099,-0.1023,-0.1028,-0.1011,-0.0972,-0.0882,-0.0741,-0.0582,-0.0316,-0.0052,0.0158,0.0411,0.0566,0.0539,0.0568,0.0508,0.0501,0.0495,0.0469,0.0565,0.0565,0.0565,0.0566,0,0,-0.0861,-0.092,-0.0951,-0.1015,-0.1047,-0.1053,-0.1031,-0.0955,-0.0845,-0.0669,-0.0515,-0.0318,-0.0043,0.0136,0.0331,0.0458,0.0431,0.0457,0.0434,0.0334,0.0326,0.0443,0.0394,0,0,0,0,0]}],[{"header":{"parameterUnit":"m.s-1","parameterCategory":2,"la1":30.2991,"la2":30.254,"lo1":-89.0895,"lo2":-89.0444,"dy":0.0017,"dx":0.0017,"nx":28,"ny":28,"refTime":"2023-08-28T09:00:00:Z","depth":"4","parameterNumber":2,"parameterNumberName":"U-component_of_CURRENTS"},"data":[0,0,0,0,0,0,0,0,0,0,0,0,0,0,0,0,0,0,0,0,0,0,0,0,0,0,0,0,0,0,0,0,0,0,0,0,0,0,0,0,0,0,0,0,0,0,0,0,0,0,0,0,0,0,0,0,0,0,-0.1553,-0.1553,0,-0.1563,-0.1563,-0.1564,-0.1577,-0.1577,-0.1578,-0.1578,-0.1607,-0.1607,-0.1608,0,0,0,0,0,0,0,0,0,0,0,0,0,-0.1498,-0.1499,-0.1553,-0.1553,-0.1553,-0.1563,-0.1563,-0.1564,-0.1577,-0.1577,-0.1578,-0.1578,-0.1606,-0.1607,-0.1608,0,0,0,0,0,0,0,0,0,0,0,0,0,-0.1517,-0.1499,-0.1553,-0.1561,-0.1561,-0.1563,-0.1563,-0.1564,-0.1577,-0.1577,-0.1578,-0.1578,-0.1606,-0.1607,-0.1608,-0.1608,0,0,-0.1611,-0.1611,0,0,0,0,0,0,0,0,-0.1516,-0.1519,-0.1559,-0.156,-0.1561,-0.1569,-0.1555,-0.1579,-0.1577,-0.1572,-0.1578,-0.1578,-0.1595,-0.1597,-0.1599,-0.161,-0.1611,-0.1611,-0.1611,-0.1612,-0.1612,0,0,0,0,0,0,0,-0.1515,-0.1518,-0.1557,-0.1559,-0.156,-0.1547,-0.1551,-0.1559,-0.1583,-0.1572,-0.1573,-0.1573,-0.1596,-0.1598,-0.16,-0.1611,-0.1611,-0.1612,-0.1612,-0.1612,-0.1646,-0.1646,0,0,0,0,0,0,-0.1515,-0.1518,-0.1557,-0.1558,-0.1538,-0.1548,-0.1552,-0.1566,-0.1582,-0.1584,-0.1573,-0.1574,-0.1596,-0.1599,-0.1601,-0.1645,-0.1612,-0.1613,-0.1613,-0.1645,-0.1646,-0.1646,0,0,0,0,0,0,-0.1514,-0.1519,-0.1557,-0.1536,-0.154,-0.1549,-0.1565,-0.1566,-0.1596,-0.1582,-0.1585,-0.1603,-0.1597,-0.1599,-0.1623,-0.1644,-0.1613,-0.1614,-0.1645,-0.1646,-0.1646,-0.1705,0,0,0,0,0,0,-0.1512,-0.1519,-0.1541,-0.1537,-0.1541,-0.1574,-0.1565,-0.1566,-0.1593,-0.1595,-0.1609,-0.161,-0.1597,-0.1622,-0.1624,-0.1645,-0.1615,-0.1645,-0.1645,-0.1646,-0.1703,-0.1708,-0.1712,0,0,0,0,0,-0.1511,-0.153,-0.1543,-0.1548,-0.1569,-0.1575,-0.1577,-0.1583,-0.1595,-0.1611,-0.1617,-0.1611,-0.1627,-0.1623,-0.1626,-0.1647,-0.1644,-0.1645,-0.1646,-0.1701,-0.1707,-0.1712,0,0,0,0,0,0,-0.1509,-0.1533,-0.1547,-0.1572,-0.1584,-0.1578,-0.1593,-0.1603,-0.1621,-0.1632,-0.1623,-0.1624,-0.1647,-0.1639,-0.1636,-0.1655,-0.1632,-0.1633,-0.1673,-0.1679,-0.1683,-0.1681,-0.1615,0,0,0,0,0,-0.1522,-0.1549,-0.1562,-0.1583,-0.1595,-0.1605,-0.1614,-0.1623,-0.163,-0.1641,-0.1647,-0.165,-0.1647,-0.1659,-0.1654,-0.1678,-0.1655,-0.1689,-0.1693,-0.1697,-0.1696,-0.1686,-0.1689,-0.1649,-0.1649,-0.1649,0,0,-0.1526,-0.1543,-0.1558,-0.1586,-0.1598,-0.1613,-0.1612,-0.1636,-0.1652,-0.164,-0.1673,-0.167,-0.1655,-0.167,-0.1681,-0.1673,-0.1695,-0.1698,-0.1702,-0.1698,-0.1687,-0.1691,-0.1694,-0.1649,-0.1649,-0.1649,0,0,-0.1525,-0.1567,-0.1584,-0.1602,-0.163,-0.1638,-0.1654,-0.1672,-0.1689,-0.1718,-0.1703,-0.1717,-0.1728,-0.1716,-0.171,-0.1739,-0.1715,-0.174,-0.1772,-0.1763,-0.1766,-0.1769,-0.174,-0.174,-0.1748,-0.1749,-0.1749,0,-0.1528,-0.1556,-0.1587,-0.1604,-0.1621,-0.1654,-0.167,-0.1691,-0.1714,-0.1725,-0.1737,-0.1743,-0.1744,-0.1743,-0.1754,-0.1751,-0.1734,-0.1757,-0.177,-0.1772,-0.1774,-0.1743,-0.1742,-0.1751,-0.1751,-0.1751,-0.1751,0,-0.1529,-0.1564,-0.1577,-0.1616,-0.1639,-0.1663,-0.1693,-0.1726,-0.1758,-0.1769,-0.1793,-0.1794,-0.1793,-0.18,-0.1792,-0.1802,-0.1781,-0.1774,-0.176,-0.1782,-0.1748,-0.1746,-0.1756,-0.1755,-0.1754,-0.1753,0,0,-0.1499,-0.1565,-0.1573,-0.1599,-0.1653,-0.1668,-0.1708,-0.174,-0.1765,-0.1801,-0.1819,-0.1832,-0.184,-0.1832,-0.1826,-0.1832,-0.1838,-0.1819,-0.1817,-0.1795,-0.1804,-0.1679,-0.1664,-0.1839,-0.1839,-0.1839,-0.1773,0,-0.1491,-0.1528,-0.1564,-0.1606,-0.1631,-0.1681,-0.1711,-0.1749,-0.1785,-0.1814,-0.183,-0.1844,-0.1849,-0.1857,-0.1864,-0.1842,-0.1835,-0.1855,-0.178,-0.1778,-0.1668,-0.1658,-0.1839,-0.1771,-0.1771,-0.177,-0.177,0,-0.1473,-0.1507,-0.1546,-0.1612,-0.1628,-0.1659,-0.172,-0.175,-0.1796,-0.1823,-0.1847,-0.1857,-0.1869,-0.1874,-0.1851,-0.1865,-0.1839,-0.1823,-0.182,-0.1679,-0.1648,-0.1744,-0.1766,-0.1766,-0.1766,-0.1767,-0.1767,0,-0.143,-0.1493,-0.153,-0.1553,-0.1628,-0.1659,-0.17,-0.1753,-0.178,-0.1827,-0.1847,-0.1862,-0.187,-0.1855,-0.183,-0.1845,-0.1792,-0.1802,-0.1657,-0.1648,-0.1757,-0.1755,-0.1775,-0.1775,-0.1775,-0.1776,-0.1776,0,-0.1399,-0.1431,-0.152,-0.154,-0.1582,-0.1644,-0.1687,-0.1728,-0.1782,-0.1799,-0.1847,-0.1846,-0.187,-0.1846,-0.1823,-0.1718,-0.1779,-0.1647,-0.1619,-0.1782,-0.1783,-0.1755,-0.1754,-0.1773,-0.1774,-0.1774,-0.1775,0,-0.1339,-0.14,-0.1446,-0.1536,-0.1563,-0.1594,-0.1676,-0.1702,-0.1763,-0.1785,-0.18,-0.1834,-0.179,-0.1781,-0.1742,-0.1683,-0.1614,-0.156,-0.1717,-0.1701,-0.148,-0.1482,-0.139,-0.1385,-0.1381,-0.1377,-0.1374,0,-0.1307,-0.1328,-0.1428,-0.1458,-0.1503,-0.1561,-0.1598,-0.1678,-0.17,-0.1754,-0.1749,-0.1739,-0.174,-0.1566,-0.1585,-0.1497,-0.1482,-0.1439,-0.1477,-0.1456,-0.1439,-0.1448,-0.1456,-0.1367,-0.1366,-0.1365,-0.1364,0,-0.1241,-0.1292,-0.1331,-0.139,-0.1442,-0.1482,-0.154,-0.154,-0.1617,-0.1697,-0.1635,-0.1588,-0.1525,-0.1472,-0.1401,-0.1353,-0.1468,-0.1395,-0.1404,-0.1439,-0.1428,-0.1417,-0.143,-0.1349,-0.1351,-0.1353,-0.1353,0,-0.1191,-0.1203,-0.1262,-0.1296,-0.1361,-0.1368,-0.1414,-0.1426,-0.1448,-0.1518,-0.1492,-0.1475,-0.151,-0.1394,-0.1339,-0.1266,-0.1253,-0.1222,-0.1241,-0.1257,-0.1242,-0.1211,-0.1024,0,0,0,0,0,-0.1129,-0.1126,-0.116,-0.1186,-0.1246,-0.127,-0.1356,-0.1406,-0.1484,-0.1402,-0.1439,-0.1372,-0.1274,-0.127,-0.1162,-0.1273,-0.126,-0.1144,-0.1236,-0.1267,-0.1284,-0.1278,0,0,0,0,0,0,-0.1087,-0.1115,-0.1119,-0.1078,-0.1071,-0.1112,-0.1156,-0.1218,-0.1179,-0.1265,-0.1211,-0.128,-0.1198,-0.1292,-0.1124,-0.1122,-0.1151,-0.1149,-0.1145,-0.1257,-0.1273,-0.1286,-0.1287,0,0,0,0,0]},{"header":{"parameterUnit":"m.s-1","parameterCategory":2,"la1":30.2991,"la2":30.254,"lo1":-89.0895,"lo2":-89.0444,"dy":0.0017,"dx":0.0017,"nx":28,"ny":28,"refTime":"2023-08-28T09:00:00:Z","depth":"4","parameterNumber":3,"parameterNumberName":"V-component_of_CURRENTS"},"data":[0,0,0,0,0,0,0,0,0,0,0,0,0,0,0,0,0,0,0,0,0,0,0,0,0,0,0,0,0,0,0,0,0,0,0,0,0,0,0,0,0,0,0,0,0,0,0,0,0,0,0,0,0,0,0,0,0,0,-0.0287,-0.0287,0,-0.0263,-0.0262,-0.0262,-0.0247,-0.0247,-0.0247,-0.0247,-0.0213,-0.0212,-0.0211,0,0,0,0,0,0,0,0,0,0,0,0,0,-0.0294,-0.0294,-0.0287,-0.0287,-0.0286,-0.0263,-0.0262,-0.0262,-0.0247,-0.0247,-0.0247,-0.0247,-0.0213,-0.0212,-0.0211,0,0,0,0,0,0,0,0,0,0,0,0,0,-0.0283,-0.0294,-0.0287,-0.0276,-0.0275,-0.0263,-0.0262,-0.0262,-0.0248,-0.0247,-0.0247,-0.0247,-0.0213,-0.0212,-0.0211,-0.0205,0,0,-0.0207,-0.0206,0,0,0,0,0,0,0,0,-0.0283,-0.0282,-0.0278,-0.0277,-0.0276,-0.0258,-0.0252,-0.0242,-0.0248,-0.0258,-0.0247,-0.0247,-0.0227,-0.0224,-0.022,-0.0203,-0.0202,-0.0207,-0.0206,-0.0205,-0.0205,0,0,0,0,0,0,0,-0.0284,-0.0283,-0.0278,-0.0278,-0.0276,-0.0263,-0.0262,-0.025,-0.0243,-0.0257,-0.0256,-0.0253,-0.0226,-0.0222,-0.0219,-0.0201,-0.0207,-0.0206,-0.0205,-0.0204,-0.0174,-0.0174,0,0,0,0,0,0,-0.0289,-0.0284,-0.0278,-0.0277,-0.0279,-0.0263,-0.0262,-0.0264,-0.0244,-0.024,-0.0253,-0.0253,-0.0224,-0.0221,-0.0218,-0.0204,-0.0205,-0.0204,-0.0203,-0.0174,-0.0174,-0.0174,0,0,0,0,0,0,-0.0289,-0.0289,-0.0279,-0.0279,-0.0277,-0.0264,-0.0266,-0.0263,-0.0262,-0.0241,-0.0237,-0.0254,-0.0224,-0.022,-0.0214,-0.0203,-0.0204,-0.0202,-0.0174,-0.0174,-0.0174,-0.0179,0,0,0,0,0,0,-0.0289,-0.0289,-0.0299,-0.028,-0.0278,-0.0277,-0.0266,-0.0263,-0.026,-0.0259,-0.0241,-0.0237,-0.0223,-0.0216,-0.0213,-0.0201,-0.0201,-0.0174,-0.0174,-0.0174,-0.0179,-0.018,-0.018,0,0,0,0,0,-0.029,-0.0303,-0.0299,-0.0299,-0.0289,-0.0277,-0.0275,-0.0264,-0.026,-0.0262,-0.0251,-0.0238,-0.0213,-0.0215,-0.0211,-0.0199,-0.0174,-0.0174,-0.0174,-0.0179,-0.018,-0.018,0,0,0,0,0,0,-0.0314,-0.0303,-0.0298,-0.0309,-0.0296,-0.0275,-0.028,-0.0268,-0.0261,-0.0263,-0.0242,-0.0238,-0.0226,-0.0216,-0.0219,-0.0191,-0.0189,-0.0188,-0.0195,-0.0195,-0.0195,-0.0191,-0.02,0,0,0,0,0,-0.0324,-0.0331,-0.0312,-0.0322,-0.0318,-0.0299,-0.0295,-0.0286,-0.0273,-0.027,-0.0255,-0.0239,-0.0222,-0.0213,-0.0201,-0.0188,-0.0163,-0.0177,-0.0177,-0.0177,-0.0172,-0.0123,-0.0118,-0.0174,-0.0174,-0.0174,0,0,-0.0336,-0.0331,-0.0336,-0.0328,-0.0319,-0.0315,-0.0297,-0.0294,-0.0286,-0.0268,-0.026,-0.0243,-0.0221,-0.0205,-0.0198,-0.0195,-0.015,-0.0177,-0.0177,-0.0172,-0.0122,-0.0117,-0.0112,-0.0174,-0.0174,-0.0174,0,0,-0.0359,-0.036,-0.037,-0.0361,-0.0349,-0.0335,-0.0334,-0.0314,-0.0303,-0.0293,-0.0273,-0.0247,-0.0233,-0.0202,-0.0187,-0.018,-0.0155,-0.0183,-0.0176,-0.0129,-0.0123,-0.0118,-0.0086,-0.0078,-0.0179,-0.0179,-0.0179,0,-0.0375,-0.0383,-0.0371,-0.0374,-0.0369,-0.0344,-0.0347,-0.033,-0.031,-0.0296,-0.0296,-0.0248,-0.0225,-0.0186,-0.0181,-0.0177,-0.0158,-0.0176,-0.0128,-0.0122,-0.0117,-0.0085,-0.0076,-0.018,-0.018,-0.018,-0.018,0,-0.0397,-0.0405,-0.041,-0.0405,-0.0398,-0.0397,-0.037,-0.036,-0.0344,-0.0319,-0.0285,-0.025,-0.0218,-0.0202,-0.0189,-0.0139,-0.0141,-0.0135,-0.0125,-0.0111,-0.0079,-0.007,-0.018,-0.018,-0.018,-0.018,0,0,-0.0423,-0.0426,-0.0427,-0.0431,-0.0414,-0.041,-0.0396,-0.0369,-0.0356,-0.0323,-0.0296,-0.0246,-0.022,-0.0201,-0.0172,-0.0124,-0.0065,-0.0117,-0.0114,-0.0082,0.0026,0.0018,0.0027,-0.0055,-0.0053,-0.0052,0.0031,0,-0.0441,-0.0462,-0.0452,-0.0461,-0.0466,-0.0439,-0.0428,-0.04,-0.0371,-0.0339,-0.0279,-0.025,-0.0222,-0.0207,-0.0151,-0.0092,-0.004,-0.0089,0.0006,0.0008,0.0002,0.0038,-0.0046,0.0039,0.0041,0.0042,0.0044,0,-0.0458,-0.0471,-0.0492,-0.0489,-0.0488,-0.049,-0.0466,-0.0452,-0.0395,-0.037,-0.0318,-0.0278,-0.0202,-0.0185,-0.006,-0.0098,-0.0034,0.0017,0.0021,0.0024,0.0018,0.0024,0.0061,0.006,0.0058,0.0057,0.0056,0,-0.0479,-0.0492,-0.0513,-0.0514,-0.0509,-0.0512,-0.0506,-0.0465,-0.0449,-0.0391,-0.0371,-0.0282,-0.0238,-0.0145,-0.004,-0.005,0.0095,0.0094,0.0149,0.0149,0.0133,0.0127,0.0192,0.0192,0.0192,0.0192,0.0192,0,-0.0494,-0.051,-0.0531,-0.0542,-0.0564,-0.0547,-0.0551,-0.0529,-0.0488,-0.0462,-0.0394,-0.0348,-0.0225,-0.0131,-0.0039,0.0084,0.0099,0.0163,0.0178,0.0126,0.0118,0.0139,0.0132,0.0195,0.0194,0.0194,0.0193,0,-0.0508,-0.0523,-0.0551,-0.0568,-0.0578,-0.0595,-0.0596,-0.059,-0.0551,-0.0515,-0.0499,-0.0389,-0.0266,-0.0144,0.0016,0.0082,0.0199,0.0239,0.0171,0.0178,0.0218,0.021,0.0309,0.0309,0.031,0.031,0.0311,0,-0.0515,-0.0535,-0.0581,-0.0609,-0.0623,-0.0647,-0.0659,-0.063,-0.0614,-0.0532,-0.051,-0.0391,-0.0307,-0.0084,0.0036,0.0209,0.0232,0.0281,0.0262,0.023,0.0235,0.0225,0.0216,0.0311,0.0312,0.0312,0.0312,0,-0.0528,-0.0553,-0.058,-0.0645,-0.0679,-0.0703,-0.0713,-0.0701,-0.0649,-0.0617,-0.0496,-0.0375,-0.0233,-0.0071,0.0061,0.0183,0.0241,0.0287,0.0286,0.0269,0.0234,0.0236,0.0227,0.0314,0.0313,0.0313,0.0313,0,-0.054,-0.057,-0.062,-0.0669,-0.0719,-0.0742,-0.0742,-0.0701,-0.0671,-0.0567,-0.0525,-0.0366,-0.0266,-0.0083,0.0041,0.0156,0.0182,0.0209,0.0213,0.0212,0.0154,0.0094,0.0158,0,0,0,0,0,-0.0546,-0.0586,-0.0639,-0.0696,-0.0745,-0.0767,-0.0768,-0.0752,-0.0698,-0.0612,-0.0561,-0.0421,-0.0212,-0.0117,-0.0,0.0027,0.0178,0.0164,0.0204,0.0323,0.0321,0.0268,0,0,0,0,0,0,-0.0554,-0.061,-0.0639,-0.0706,-0.0744,-0.0788,-0.0785,-0.0749,-0.0684,-0.0612,-0.0494,-0.0411,-0.0208,-0.0281,-0.0004,0.0031,0.0069,0.0268,0.027,0.0324,0.0322,0.0321,0.0266,0,0,0,0,0]}]]